Time,TemperatureF,DewpointF,PressureIn,WindDirection,WindDirectionDegrees,WindSpeedMPH,WindSpeedGustMPH,Humidity,HourlyPrecipIn,Conditions,Clouds,dailyrainin,SoftwareType,DateUTC
2013-03-06 00:00:00,33.9,32.9,29.62,NNW,345,1.0,3.0,96,0.16,,---,0.00,VWS V14.01,2013-03-06 05:00:00,
2013-03-06 00:05:00,33.8,32.8,29.61,NNE,26,3.0,9.0,96,0.13,,---,0.01,VWS V14.01,2013-03-06 05:05:00,
2013-03-06 00:10:00,33.7,32.7,29.61,NW,313,0.0,3.0,96,0.14,,---,0.02,VWS V14.01,2013-03-06 05:10:00,
2013-03-06 00:15:00,33.6,32.6,29.62,NW,313,0.0,3.0,96,0.12,,---,0.02,VWS V14.01,2013-03-06 05:15:00,
2013-03-06 00:20:00,33.7,32.7,29.62,NW,311,1.0,4.0,96,0.12,,---,0.02,VWS V14.01,2013-03-06 05:20:00,
2013-03-06 00:25:00,33.7,32.7,29.63,WNW,284,0.0,3.0,96,0.12,,---,0.02,VWS V14.01,2013-03-06 05:25:00,
2013-03-06 00:30:00,33.7,32.7,29.63,WNW,284,2.0,4.0,96,0.08,,---,0.02,VWS V14.01,2013-03-06 05:30:00,
2013-03-06 00:35:00,33.7,32.7,29.63,NW,314,2.0,5.0,96,0.09,,---,0.03,VWS V14.01,2013-03-06 05:35:00,
2013-03-06 00:40:00,33.6,32.6,29.63,NW,314,1.0,2.0,96,0.09,,---,0.03,VWS V14.01,2013-03-06 05:40:00,
2013-03-06 00:45:00,33.5,32.5,29.62,NW,314,1.0,4.0,96,0.05,,---,0.03,VWS V14.01,2013-03-06 05:45:00,
2013-03-06 00:50:00,33.3,32.3,29.62,NNW,340,1.0,3.0,96,0.05,,---,0.03,VWS V14.01,2013-03-06 05:50:00,
2013-03-06 00:55:00,33.2,32.2,29.63,NNW,340,3.0,3.0,96,0.05,,---,0.03,VWS V14.01,2013-03-06 05:55:00,
2013-03-06 01:00:00,33.1,32.1,29.63,NNW,340,0.0,3.0,96,0.03,,---,0.03,VWS V14.01,2013-03-06 06:00:00,
2013-03-06 01:05:00,33.0,32.0,29.62,NNW,341,0.0,2.0,96,0.03,,---,0.03,VWS V14.01,2013-03-06 06:05:00,
2013-03-06 01:10:00,32.8,31.8,29.62,NNW,341,0.0,1.0,96,0.03,,---,0.03,VWS V14.01,2013-03-06 06:10:00,
2013-03-06 01:15:00,32.8,31.8,29.63,NNW,341,2.0,2.0,96,0.01,,---,0.03,VWS V14.01,2013-03-06 06:15:00,
2013-03-06 01:20:00,32.7,31.7,29.63,NNW,341,0.0,2.0,96,0.01,,---,0.03,VWS V14.01,2013-03-06 06:20:00,
2013-03-06 01:25:00,32.6,31.6,29.63,NW,319,2.0,3.0,96,0.01,,---,0.03,VWS V14.01,2013-03-06 06:25:00,
2013-03-06 01:30:00,32.6,31.8,29.63,NW,319,2.0,3.0,97,0.01,,---,0.03,VWS V14.01,2013-03-06 06:30:00,
2013-03-06 01:35:00,32.5,31.7,29.63,NW,319,2.0,3.0,97,0.01,,---,0.03,VWS V14.01,2013-03-06 06:35:00,
2013-03-06 01:40:00,32.5,31.7,29.63,NW,319,1.0,3.0,97,0.01,,---,0.03,VWS V14.01,2013-03-06 06:40:00,
2013-03-06 01:45:00,32.5,31.7,29.62,NW,319,1.0,3.0,97,0.00,,---,0.03,VWS V14.01,2013-03-06 06:45:00,
2013-03-06 01:50:00,32.5,31.7,29.62,NW,319,3.0,4.0,97,0.00,,---,0.03,VWS V14.01,2013-03-06 06:50:00,
2013-03-06 01:55:00,32.5,31.7,29.62,NW,317,2.0,6.0,97,0.00,,---,0.03,VWS V14.01,2013-03-06 06:55:00,
2013-03-06 02:00:00,32.5,31.7,29.62,NW,317,1.0,4.0,97,0.00,,---,0.03,VWS V14.01,2013-03-06 07:00:00,
2013-03-06 02:05:00,32.6,31.8,29.63,NW,317,2.0,2.0,97,0.00,,---,0.03,VWS V14.01,2013-03-06 07:05:00,
2013-03-06 02:10:00,32.6,31.8,29.63,NW,318,1.0,4.0,97,0.00,,---,0.03,VWS V14.01,2013-03-06 07:10:00,
2013-03-06 02:15:00,32.6,31.8,29.63,NW,318,1.0,3.0,97,0.00,,---,0.03,VWS V14.01,2013-03-06 07:15:00,
2013-03-06 02:20:00,32.7,31.9,29.63,NW,318,1.0,2.0,97,0.00,,---,0.03,VWS V14.01,2013-03-06 07:20:00,
2013-03-06 02:25:00,32.6,31.8,29.63,NW,318,1.0,2.0,97,0.00,,---,0.03,VWS V14.01,2013-03-06 07:25:00,
2013-03-06 02:30:00,32.6,31.8,29.63,NW,318,1.0,2.0,97,0.00,,---,0.03,VWS V14.01,2013-03-06 07:30:00,
2013-03-06 02:35:00,32.6,31.8,29.63,NW,318,2.0,3.0,97,0.00,,---,0.03,VWS V14.01,2013-03-06 07:35:00,
2013-03-06 02:40:00,32.6,31.8,29.63,NW,318,1.0,2.0,97,0.00,,---,0.03,VWS V14.01,2013-03-06 07:40:00,
2013-03-06 02:45:00,32.6,31.8,29.62,NW,318,2.0,3.0,97,0.00,,---,0.03,VWS V14.01,2013-03-06 07:45:00,
2013-03-06 02:50:00,32.6,31.8,29.62,NW,324,2.0,4.0,97,0.00,,---,0.03,VWS V14.01,2013-03-06 07:50:00,
2013-03-06 02:55:00,32.6,31.8,29.62,NW,322,2.0,5.0,97,0.00,,---,0.03,VWS V14.01,2013-03-06 07:55:00,
2013-03-06 03:00:00,32.6,31.8,29.61,NW,324,3.0,4.0,97,0.00,,---,0.03,VWS V14.01,2013-03-06 08:00:00,
2013-03-06 03:05:00,32.6,31.8,29.61,NW,309,1.0,5.0,97,0.00,,---,0.03,VWS V14.01,2013-03-06 08:05:00,
2013-03-06 03:10:00,32.5,31.7,29.62,NW,309,2.0,3.0,97,0.00,,---,0.03,VWS V14.01,2013-03-06 08:10:00,
2013-03-06 03:15:00,32.5,31.7,29.61,NW,326,1.0,5.0,97,0.00,,---,0.03,VWS V14.01,2013-03-06 08:15:00,
2013-03-06 03:20:00,32.5,31.7,29.61,NW,326,0.0,3.0,97,0.00,,---,0.03,VWS V14.01,2013-03-06 08:20:00,
2013-03-06 03:25:00,32.6,32.1,29.61,NW,326,1.0,3.0,98,0.00,,---,0.03,VWS V14.01,2013-03-06 08:25:00,
2013-03-06 03:30:00,32.6,32.1,29.60,NW,326,0.0,2.0,98,0.00,,---,0.03,VWS V14.01,2013-03-06 08:30:00,
2013-03-06 03:35:00,32.6,31.8,29.60,NW,326,2.0,2.0,97,0.00,,---,0.03,VWS V14.01,2013-03-06 08:35:00,
2013-03-06 03:40:00,32.5,31.7,29.60,NW,326,1.0,3.0,97,0.00,,---,0.03,VWS V14.01,2013-03-06 08:40:00,
2013-03-06 03:45:00,32.6,32.1,29.60,WNW,302,2.0,4.0,98,0.01,,---,0.04,VWS V14.01,2013-03-06 08:45:00,
2013-03-06 03:50:00,32.6,32.1,29.60,NW,325,2.0,4.0,98,0.01,,---,0.04,VWS V14.01,2013-03-06 08:50:00,
2013-03-06 03:55:00,32.6,32.1,29.60,NW,325,2.0,3.0,98,0.01,,---,0.04,VWS V14.01,2013-03-06 08:55:00,
2013-03-06 04:00:00,32.6,32.1,29.60,NW,325,2.0,3.0,98,0.01,,---,0.04,VWS V14.01,2013-03-06 09:00:00,
2013-03-06 04:05:00,32.7,31.9,29.60,NW,325,3.0,4.0,97,0.01,,---,0.04,VWS V14.01,2013-03-06 09:05:00,
2013-03-06 04:10:00,32.7,31.9,29.60,NNW,336,3.0,4.0,97,0.01,,---,0.04,VWS V14.01,2013-03-06 09:10:00,
2013-03-06 04:15:00,32.8,32.0,29.61,NNW,345,5.0,5.0,97,0.01,,---,0.04,VWS V14.01,2013-03-06 09:15:00,
2013-03-06 04:20:00,32.9,32.1,29.61,NNW,336,5.0,6.0,97,0.01,,---,0.04,VWS V14.01,2013-03-06 09:20:00,
2013-03-06 04:25:00,32.9,32.1,29.60,NNW,348,4.0,5.0,97,0.01,,---,0.04,VWS V14.01,2013-03-06 09:25:00,
2013-03-06 04:30:00,32.8,32.0,29.61,NNW,348,1.0,4.0,97,0.01,,---,0.04,VWS V14.01,2013-03-06 09:30:00,
2013-03-06 04:35:00,32.8,32.0,29.61,NNW,348,2.0,5.0,97,0.01,,---,0.04,VWS V14.01,2013-03-06 09:35:00,
2013-03-06 04:39:00,32.7,31.9,29.60,North,355,2.0,4.0,97,0.01,,---,0.04,VWS V14.01,2013-03-06 09:39:00,
2013-03-06 04:44:00,32.7,31.9,29.60,NNW,341,3.0,5.0,97,0.01,,---,0.04,VWS V14.01,2013-03-06 09:44:00,
2013-03-06 04:49:00,32.8,32.0,29.60,NNW,339,3.0,5.0,97,0.00,,---,0.04,VWS V14.01,2013-03-06 09:49:00,
2013-03-06 04:54:00,32.8,31.8,29.61,NW,319,3.0,6.0,96,0.01,,---,0.05,VWS V14.01,2013-03-06 09:54:00,
2013-03-06 04:59:00,32.8,31.8,29.61,North,360,4.0,10.0,96,0.01,,---,0.05,VWS V14.01,2013-03-06 09:59:00,
2013-03-06 05:04:00,32.9,31.9,29.61,North,360,4.0,6.0,96,0.01,,---,0.05,VWS V14.01,2013-03-06 10:04:00,
2013-03-06 05:09:00,32.8,31.8,29.61,NNW,339,6.0,7.0,96,0.01,,---,0.05,VWS V14.01,2013-03-06 10:09:00,
2013-03-06 05:14:00,32.8,31.8,29.61,NW,310,4.0,7.0,96,0.01,,---,0.05,VWS V14.01,2013-03-06 10:14:00,
2013-03-06 05:19:00,32.8,31.5,29.61,NNW,338,4.0,7.0,95,0.01,,---,0.05,VWS V14.01,2013-03-06 10:19:00,
2013-03-06 05:24:00,32.8,31.5,29.61,NNW,328,4.0,8.0,95,0.01,,---,0.05,VWS V14.01,2013-03-06 10:24:00,
2013-03-06 05:29:00,32.8,31.3,29.61,NNW,336,4.0,6.0,94,0.01,,---,0.05,VWS V14.01,2013-03-06 10:29:00,
2013-03-06 05:34:00,32.9,31.1,29.61,North,360,7.0,11.0,93,0.01,,---,0.05,VWS V14.01,2013-03-06 10:34:00,
2013-03-06 05:39:00,32.9,30.8,29.61,NW,319,5.0,9.0,92,0.01,,---,0.05,VWS V14.01,2013-03-06 10:39:00,
2013-03-06 05:44:00,32.8,31.0,29.62,North,360,4.0,7.0,93,0.01,,---,0.05,VWS V14.01,2013-03-06 10:44:00,
2013-03-06 05:49:00,32.7,30.9,29.62,NW,323,5.0,7.0,93,0.01,,---,0.05,VWS V14.01,2013-03-06 10:49:00,
2013-03-06 05:54:00,32.7,30.6,29.62,NNW,338,4.0,8.0,92,0.01,,---,0.05,VWS V14.01,2013-03-06 10:54:00,
2013-03-06 05:59:00,32.8,30.5,29.62,NNW,327,5.0,14.0,91,0.01,,---,0.05,VWS V14.01,2013-03-06 10:59:00,
2013-03-06 06:04:00,32.9,30.3,29.62,NW,319,4.0,10.0,90,0.00,,---,0.05,VWS V14.01,2013-03-06 11:04:00,
2013-03-06 06:09:00,32.8,30.5,29.62,NW,322,6.0,6.0,91,0.00,,---,0.05,VWS V14.01,2013-03-06 11:09:00,
2013-03-06 06:14:00,32.7,30.1,29.62,NNW,333,4.0,8.0,90,0.00,,---,0.05,VWS V14.01,2013-03-06 11:14:00,
2013-03-06 06:19:00,32.6,30.3,29.62,NNW,329,4.0,10.0,91,0.00,,---,0.05,VWS V14.01,2013-03-06 11:19:00,
2013-03-06 06:24:00,32.5,30.2,29.62,North,355,3.0,12.0,91,0.00,,---,0.05,VWS V14.01,2013-03-06 11:24:00,
2013-03-06 06:29:00,32.4,30.1,29.62,NNE,19,4.0,6.0,91,0.00,,---,0.05,VWS V14.01,2013-03-06 11:29:00,
2013-03-06 06:34:00,32.4,30.1,29.63,North,355,1.0,11.0,91,0.00,,---,0.05,VWS V14.01,2013-03-06 11:34:00,
2013-03-06 06:39:00,32.3,30.0,29.63,NNW,342,9.0,10.0,91,0.00,,---,0.05,VWS V14.01,2013-03-06 11:39:00,
2013-03-06 06:44:00,32.3,30.0,29.63,North,350,4.0,9.0,91,0.00,,---,0.05,VWS V14.01,2013-03-06 11:44:00,
2013-03-06 06:49:00,32.1,29.8,29.63,NW,321,3.0,9.0,91,0.00,,---,0.05,VWS V14.01,2013-03-06 11:49:00,
2013-03-06 06:54:00,32.1,29.8,29.63,North,349,6.0,7.0,91,0.00,,---,0.05,VWS V14.01,2013-03-06 11:54:00,
2013-03-06 06:59:00,32.1,29.5,29.63,NNW,344,6.0,7.0,90,0.00,,---,0.05,VWS V14.01,2013-03-06 11:59:00,
2013-03-06 07:04:00,32.3,29.4,29.64,WNW,296,5.0,9.0,89,0.00,,---,0.05,VWS V14.01,2013-03-06 12:04:00,
2013-03-06 07:09:00,32.3,29.4,29.64,NNW,332,4.0,10.0,89,0.00,,---,0.05,VWS V14.01,2013-03-06 12:09:00,
2013-03-06 07:14:00,32.3,29.7,29.64,NNW,334,4.0,11.0,90,0.00,,---,0.05,VWS V14.01,2013-03-06 12:14:00,
2013-03-06 07:19:00,32.2,29.6,29.64,NNE,17,3.0,11.0,90,0.00,,---,0.05,VWS V14.01,2013-03-06 12:19:00,
2013-03-06 07:24:00,32.1,29.2,29.64,NNW,336,5.0,9.0,89,0.00,,---,0.05,VWS V14.01,2013-03-06 12:24:00,
2013-03-06 07:29:00,32.1,29.5,29.64,NNW,331,4.0,9.0,90,0.00,,---,0.05,VWS V14.01,2013-03-06 12:29:00,
2013-03-06 07:34:00,32.1,29.0,29.64,NNW,331,5.0,11.0,88,0.00,,---,0.05,VWS V14.01,2013-03-06 12:34:00,
2013-03-06 07:39:00,32.3,28.9,29.65,NW,319,5.0,9.0,87,0.01,,---,0.06,VWS V14.01,2013-03-06 12:39:00,
2013-03-06 07:44:00,32.3,29.1,29.65,NNW,330,5.0,6.0,88,0.01,,---,0.06,VWS V14.01,2013-03-06 12:44:00,
2013-03-06 07:49:00,32.4,29.0,29.65,NNW,333,4.0,8.0,87,0.01,,---,0.06,VWS V14.01,2013-03-06 12:49:00,
2013-03-06 07:54:00,32.4,28.7,29.65,NW,321,4.0,10.0,86,0.01,,---,0.06,VWS V14.01,2013-03-06 12:54:00,
2013-03-06 07:59:00,32.5,28.8,29.66,NNW,344,8.0,12.0,86,0.01,,---,0.06,VWS V14.01,2013-03-06 12:59:00,
2013-03-06 08:04:00,32.5,28.8,29.66,NNW,342,4.0,9.0,86,0.01,,---,0.06,VWS V14.01,2013-03-06 13:04:00,
2013-03-06 08:09:00,32.5,28.8,29.66,NNW,334,4.0,9.0,86,0.01,,---,0.06,VWS V14.01,2013-03-06 13:09:00,
2013-03-06 08:14:00,32.6,28.9,29.66,NNW,344,4.0,10.0,86,0.01,,---,0.06,VWS V14.01,2013-03-06 13:14:00,
2013-03-06 08:19:00,32.6,28.6,29.67,North,349,1.0,8.0,85,0.01,,---,0.06,VWS V14.01,2013-03-06 13:19:00,
2013-03-06 08:24:00,32.6,28.3,29.67,NW,310,4.0,8.0,84,0.01,,---,0.06,VWS V14.01,2013-03-06 13:24:00,
2013-03-06 08:29:00,32.8,28.5,29.67,NNW,346,7.0,15.0,84,0.01,,---,0.06,VWS V14.01,2013-03-06 13:29:00,
2013-03-06 08:34:00,32.9,28.3,29.67,North,5,3.0,10.0,83,0.01,,---,0.06,VWS V14.01,2013-03-06 13:34:00,
2013-03-06 08:39:00,32.9,28.3,29.67,NNW,346,3.0,10.0,83,0.01,,---,0.06,VWS V14.01,2013-03-06 13:39:00,
2013-03-06 08:44:00,33.0,28.1,29.68,NNW,332,12.0,13.0,82,0.01,,---,0.06,VWS V14.01,2013-03-06 13:44:00,
2013-03-06 08:49:00,33.1,28.5,29.68,NNW,347,6.0,12.0,83,0.00,,---,0.06,VWS V14.01,2013-03-06 13:49:00,
2013-03-06 08:54:00,33.1,28.5,29.68,NW,304,5.0,11.0,83,0.00,,---,0.06,VWS V14.01,2013-03-06 13:54:00,
2013-03-06 08:59:00,33.2,28.6,29.68,NW,315,6.0,11.0,83,0.00,,---,0.06,VWS V14.01,2013-03-06 13:59:00,
2013-03-06 09:04:00,33.2,28.3,29.68,NW,319,9.0,12.0,82,0.00,,---,0.06,VWS V14.01,2013-03-06 14:04:00,
2013-03-06 09:09:00,33.3,28.7,29.68,NW,314,7.0,12.0,83,0.00,,---,0.06,VWS V14.01,2013-03-06 14:09:00,
2013-03-06 09:14:00,33.4,28.5,29.67,NNW,333,8.0,10.0,82,0.00,,---,0.06,VWS V14.01,2013-03-06 14:14:00,
2013-03-06 09:19:00,33.5,28.9,29.67,NNW,337,4.0,10.0,83,0.00,,---,0.06,VWS V14.01,2013-03-06 14:19:00,
2013-03-06 09:24:00,33.7,28.2,29.68,NNW,338,5.0,16.0,80,0.00,,---,0.06,VWS V14.01,2013-03-06 14:24:00,
2013-03-06 09:29:00,33.8,28.6,29.68,WNW,294,6.0,12.0,81,0.01,,---,0.07,VWS V14.01,2013-03-06 14:29:00,
2013-03-06 09:34:00,33.9,28.4,29.68,NW,324,4.0,12.0,80,0.01,,---,0.07,VWS V14.01,2013-03-06 14:34:00,
2013-03-06 09:39:00,34.0,28.2,29.69,NNW,329,4.0,12.0,79,0.01,,---,0.07,VWS V14.01,2013-03-06 14:39:00,
2013-03-06 09:44:00,34.1,28.6,29.69,WNW,299,3.0,10.0,80,0.02,,---,0.08,VWS V14.01,2013-03-06 14:44:00,
2013-03-06 09:49:00,34.2,28.7,29.68,NNE,26,2.0,8.0,80,0.02,,---,0.08,VWS V14.01,2013-03-06 14:49:00,
2013-03-06 09:54:00,34.4,28.3,29.68,NNW,341,4.0,11.0,78,0.02,,---,0.08,VWS V14.01,2013-03-06 14:54:00,
2013-03-06 09:59:00,34.7,28.5,29.69,WNW,298,3.0,7.0,78,0.03,,---,0.09,VWS V14.01,2013-03-06 14:59:00,
2013-03-06 10:04:00,35.0,28.9,29.69,WNW,302,5.0,15.0,78,0.03,,---,0.09,VWS V14.01,2013-03-06 15:04:00,
2013-03-06 10:09:00,35.1,28.6,29.69,WNW,290,2.0,12.0,77,0.03,,---,0.09,VWS V14.01,2013-03-06 15:09:00,
2013-03-06 10:14:00,35.0,28.5,29.69,NNW,344,9.0,15.0,77,0.04,,---,0.10,VWS V14.01,2013-03-06 15:14:00,
2013-03-06 10:19:00,35.2,28.7,29.70,North,9,15.0,15.0,77,0.04,,---,0.10,VWS V14.01,2013-03-06 15:19:00,
2013-03-06 10:24:00,35.4,28.9,29.70,WNW,299,4.0,16.0,77,0.04,,---,0.10,VWS V14.01,2013-03-06 15:24:00,
2013-03-06 10:29:00,35.9,29.4,29.70,NNW,348,10.0,15.0,77,0.04,,---,0.10,VWS V14.01,2013-03-06 15:29:00,
2013-03-06 10:34:00,36.1,29.3,29.70,NW,314,8.0,14.0,76,0.03,,---,0.10,VWS V14.01,2013-03-06 15:34:00,
2013-03-06 10:39:00,36.0,28.5,29.70,NNW,346,6.0,20.0,74,0.04,,---,0.11,VWS V14.01,2013-03-06 15:39:00,
2013-03-06 10:44:00,36.0,28.5,29.70,NNW,341,6.0,18.0,74,0.04,,---,0.11,VWS V14.01,2013-03-06 15:44:00,
2013-03-06 10:49:00,36.0,28.9,29.71,NNW,331,8.0,17.0,75,0.04,,---,0.12,VWS V14.01,2013-03-06 15:49:00,
2013-03-06 10:54:00,36.4,28.9,29.71,NNW,348,5.0,16.0,74,0.04,,---,0.12,VWS V14.01,2013-03-06 15:54:00,
2013-03-06 10:59:00,37.0,30.5,29.72,NW,319,7.0,16.0,77,0.05,,---,0.13,VWS V14.01,2013-03-06 15:59:00,
2013-03-06 11:04:00,37.3,29.8,29.72,NNW,336,9.0,14.0,74,0.05,,---,0.14,VWS V14.01,2013-03-06 16:04:00,
2013-03-06 11:09:00,37.4,30.5,29.72,NW,321,12.0,23.0,76,0.06,,---,0.15,VWS V14.01,2013-03-06 16:09:00,
2013-03-06 11:14:00,37.4,29.5,29.72,NNW,339,10.0,18.0,73,0.07,,---,0.16,VWS V14.01,2013-03-06 16:14:00,
2013-03-06 11:19:00,37.1,29.6,29.73,NW,320,7.0,16.0,74,0.06,,---,0.16,VWS V14.01,2013-03-06 16:19:00,
2013-03-06 11:24:00,37.3,29.8,29.74,North,11,8.0,12.0,74,0.06,,---,0.16,VWS V14.01,2013-03-06 16:24:00,
2013-03-06 11:29:00,37.2,30.0,29.74,NNW,339,9.0,19.0,75,0.06,,---,0.16,VWS V14.01,2013-03-06 16:29:00,
2013-03-06 11:34:00,37.1,29.6,29.74,NNW,341,18.0,20.0,74,0.07,,---,0.17,VWS V14.01,2013-03-06 16:34:00,
2013-03-06 11:39:00,37.3,29.8,29.75,NNW,327,18.0,21.0,74,0.07,,---,0.17,VWS V14.01,2013-03-06 16:39:00,
2013-03-06 11:44:00,37.3,29.5,29.74,North,349,14.0,22.0,73,0.07,,---,0.17,VWS V14.01,2013-03-06 16:44:00,
2013-03-06 11:49:00,37.4,30.2,29.75,NNW,344,7.0,19.0,75,0.06,,---,0.17,VWS V14.01,2013-03-06 16:49:00,
2013-03-06 11:54:00,37.8,29.6,29.75,NW,325,15.0,18.0,72,0.06,,---,0.17,VWS V14.01,2013-03-06 16:54:00,
2013-03-06 11:59:00,38.1,29.2,29.75,NNW,333,8.0,17.0,70,0.06,,---,0.17,VWS V14.01,2013-03-06 16:59:00,
2013-03-06 12:04:00,38.7,29.8,29.75,NNW,340,10.0,22.0,70,0.03,,---,0.17,VWS V14.01,2013-03-06 17:04:00,
2013-03-06 12:09:00,39.4,30.8,29.76,NNW,329,5.0,17.0,71,0.03,,---,0.17,VWS V14.01,2013-03-06 17:09:00,
2013-03-06 12:14:00,40.1,31.5,29.76,North,355,4.0,14.0,71,0.03,,---,0.17,VWS V14.01,2013-03-06 17:14:00,
2013-03-06 12:19:00,40.9,31.9,29.76,NW,322,20.0,20.0,70,0.01,,---,0.17,VWS V14.01,2013-03-06 17:19:00,
2013-03-06 12:24:00,40.5,30.4,29.76,North,355,10.0,20.0,67,0.01,,---,0.17,VWS V14.01,2013-03-06 17:24:00,
2013-03-06 12:29:00,40.5,30.8,29.76,NW,316,9.0,21.0,68,0.01,,---,0.17,VWS V14.01,2013-03-06 17:29:00,
2013-03-06 12:34:00,40.8,31.4,29.76,NW,325,12.0,17.0,69,0.00,,---,0.17,VWS V14.01,2013-03-06 17:34:00,
2013-03-06 12:39:00,40.4,31.0,29.76,NNW,333,4.0,18.0,69,0.00,,---,0.17,VWS V14.01,2013-03-06 17:39:00,
2013-03-06 12:44:00,40.6,30.9,29.77,NW,304,6.0,15.0,68,0.00,,---,0.17,VWS V14.01,2013-03-06 17:44:00,
2013-03-06 12:48:00,40.9,31.2,29.77,North,360,12.0,17.0,68,0.00,,---,0.17,VWS V14.01,2013-03-06 17:48:00,
2013-03-06 12:53:00,41.2,30.7,29.77,North,350,7.0,15.0,66,0.00,,---,0.17,VWS V14.01,2013-03-06 17:53:00,
2013-03-06 12:58:00,41.5,31.0,29.77,NNW,333,5.0,17.0,66,0.00,,---,0.17,VWS V14.01,2013-03-06 17:58:00,
2013-03-06 13:03:00,41.5,30.2,29.77,North,350,5.0,16.0,64,0.00,,---,0.17,VWS V14.01,2013-03-06 18:03:00,
2013-03-06 13:09:00,41.3,30.4,29.77,NNE,14,3.0,15.0,65,0.00,,---,0.17,VWS V14.01,2013-03-06 18:09:00,
2013-03-06 13:14:00,41.4,30.9,29.78,NNW,331,4.0,16.0,66,0.00,,---,0.17,VWS V14.01,2013-03-06 18:14:00,
2013-03-06 13:19:00,42.0,31.9,29.78,NNW,335,6.0,12.0,67,0.00,,---,0.17,VWS V14.01,2013-03-06 18:19:00,
2013-03-06 13:24:00,41.8,30.1,29.78,NNW,331,15.0,19.0,63,0.00,,---,0.17,VWS V14.01,2013-03-06 18:24:00,
2013-03-06 13:29:00,41.6,30.3,29.78,NNW,329,6.0,19.0,64,0.00,,---,0.17,VWS V14.01,2013-03-06 18:29:00,
2013-03-06 13:34:00,41.8,30.5,29.78,NNW,328,11.0,14.0,64,0.00,,---,0.17,VWS V14.01,2013-03-06 18:34:00,
2013-03-06 13:39:00,42.2,30.9,29.78,NNW,331,13.0,15.0,64,0.00,,---,0.17,VWS V14.01,2013-03-06 18:39:00,
2013-03-06 13:44:00,41.9,29.9,29.78,North,355,8.0,20.0,62,0.00,,---,0.17,VWS V14.01,2013-03-06 18:44:00,
2013-03-06 13:49:00,41.8,29.8,29.77,NW,321,10.0,23.0,62,0.00,,---,0.17,VWS V14.01,2013-03-06 18:49:00,
2013-03-06 13:54:00,41.8,30.1,29.77,NNW,327,7.0,18.0,63,0.00,,---,0.17,VWS V14.01,2013-03-06 18:54:00,
2013-03-06 13:59:00,42.0,30.3,29.78,NNW,347,11.0,20.0,63,0.00,,---,0.17,VWS V14.01,2013-03-06 18:59:00,
2013-03-06 14:04:00,42.2,30.9,29.78,NW,323,7.0,18.0,64,0.00,,---,0.17,VWS V14.01,2013-03-06 19:04:00,
2013-03-06 14:09:00,42.3,30.6,29.78,NW,311,4.0,18.0,63,0.00,,---,0.17,VWS V14.01,2013-03-06 19:09:00,
2013-03-06 14:14:00,42.4,30.7,29.78,NW,309,9.0,15.0,63,0.00,,---,0.17,VWS V14.01,2013-03-06 19:14:00,
2013-03-06 14:19:00,42.6,30.9,29.78,NNW,348,4.0,13.0,63,0.00,,---,0.17,VWS V14.01,2013-03-06 19:19:00,
2013-03-06 14:24:00,42.5,31.2,29.79,NW,313,8.0,16.0,64,0.00,,---,0.17,VWS V14.01,2013-03-06 19:24:00,
2013-03-06 14:29:00,42.3,31.0,29.79,NNW,338,6.0,15.0,64,0.00,,---,0.17,VWS V14.01,2013-03-06 19:29:00,
2013-03-06 14:34:00,42.8,31.1,29.80,NNW,327,6.0,15.0,63,0.00,,---,0.17,VWS V14.01,2013-03-06 19:34:00,
2013-03-06 14:39:00,43.2,31.5,29.80,NW,306,6.0,13.0,63,0.00,,---,0.17,VWS V14.01,2013-03-06 19:39:00,
2013-03-06 14:44:00,43.6,32.2,29.81,NNW,331,4.0,14.0,64,0.00,,---,0.17,VWS V14.01,2013-03-06 19:44:00,
2013-03-06 14:49:00,43.7,31.5,29.81,North,355,5.0,14.0,62,0.00,,---,0.17,VWS V14.01,2013-03-06 19:49:00,
2013-03-06 14:54:00,43.7,31.5,29.81,NNW,348,9.0,16.0,62,0.00,,---,0.17,VWS V14.01,2013-03-06 19:54:00,
2013-03-06 14:59:00,43.7,31.5,29.82,NW,324,13.0,13.0,62,0.00,,---,0.17,VWS V14.01,2013-03-06 19:59:00,
2013-03-06 15:04:00,43.7,32.0,29.82,NNW,333,5.0,15.0,63,0.00,,---,0.17,VWS V14.01,2013-03-06 20:04:00,
2013-03-06 15:09:00,43.4,31.7,29.82,NNE,13,10.0,17.0,63,0.00,,---,0.17,VWS V14.01,2013-03-06 20:09:00,
2013-03-06 15:14:00,42.7,31.0,29.83,NNW,333,11.0,13.0,63,0.00,,---,0.17,VWS V14.01,2013-03-06 20:14:00,
2013-03-06 15:19:00,42.3,30.6,29.84,NNW,328,4.0,13.0,63,0.00,,---,0.17,VWS V14.01,2013-03-06 20:19:00,
2013-03-06 15:24:00,42.1,30.4,29.84,WSW,248,4.0,21.0,63,0.00,,---,0.17,VWS V14.01,2013-03-06 20:24:00,
2013-03-06 15:29:00,41.6,30.0,29.85,WNW,288,7.0,15.0,63,0.00,,---,0.17,VWS V14.01,2013-03-06 20:29:00,
2013-03-06 15:34:00,41.5,30.6,29.85,North,9,7.0,11.0,65,0.00,,---,0.17,VWS V14.01,2013-03-06 20:34:00,
2013-03-06 15:39:00,41.4,29.8,29.86,NNW,346,9.0,13.0,63,0.00,,---,0.17,VWS V14.01,2013-03-06 20:39:00,
2013-03-06 15:44:00,41.1,30.2,29.86,West,275,5.0,11.0,65,0.00,,---,0.17,VWS V14.01,2013-03-06 20:44:00,
2013-03-06 15:49:00,41.1,30.6,29.87,NNW,348,5.0,14.0,66,0.00,,---,0.17,VWS V14.01,2013-03-06 20:49:00,
2013-03-06 15:54:00,41.0,30.1,29.87,NNW,331,5.0,13.0,65,0.00,,---,0.17,VWS V14.01,2013-03-06 20:54:00,
2013-03-06 15:59:00,40.9,30.1,29.88,NW,320,5.0,10.0,65,0.00,,---,0.17,VWS V14.01,2013-03-06 20:59:00,
2013-03-06 16:04:00,40.9,30.4,29.87,NW,322,4.0,7.0,66,0.00,,---,0.17,VWS V14.01,2013-03-06 21:04:00,
2013-03-06 16:09:00,40.8,30.0,29.88,NNW,338,7.0,17.0,65,0.00,,---,0.17,VWS V14.01,2013-03-06 21:09:00,
2013-03-06 16:14:00,40.9,30.1,29.88,North,5,4.0,17.0,65,0.00,,---,0.17,VWS V14.01,2013-03-06 21:14:00,
2013-03-06 16:19:00,41.1,30.6,29.89,NNW,348,4.0,11.0,66,0.00,,---,0.17,VWS V14.01,2013-03-06 21:19:00,
2013-03-06 16:24:00,41.5,31.0,29.89,NNW,336,7.0,10.0,66,0.00,,---,0.17,VWS V14.01,2013-03-06 21:24:00,
2013-03-06 16:29:00,41.6,30.3,29.89,NW,306,3.0,13.0,64,0.00,,---,0.17,VWS V14.01,2013-03-06 21:29:00,
2013-03-06 16:34:00,41.6,30.3,29.90,NW,326,5.0,10.0,64,0.00,,---,0.17,VWS V14.01,2013-03-06 21:34:00,
2013-03-06 16:39:00,41.6,30.3,29.90,ENE,76,2.0,10.0,64,0.00,,---,0.17,VWS V14.01,2013-03-06 21:39:00,
2013-03-06 16:44:00,41.3,30.1,29.90,NNW,333,4.0,10.0,64,0.00,,---,0.17,VWS V14.01,2013-03-06 21:44:00,
2013-03-06 16:49:00,41.1,29.9,29.91,NW,305,9.0,12.0,64,0.00,,---,0.17,VWS V14.01,2013-03-06 21:49:00,
2013-03-06 16:54:00,40.9,30.4,29.91,WNW,287,4.0,20.0,66,0.00,,---,0.17,VWS V14.01,2013-03-06 21:54:00,
2013-03-06 16:59:00,40.7,29.9,29.91,North,5,5.0,16.0,65,0.00,,---,0.17,VWS V14.01,2013-03-06 21:59:00,
2013-03-06 17:04:00,40.6,30.1,29.91,WNW,302,7.0,12.0,66,0.00,,---,0.17,VWS V14.01,2013-03-06 22:04:00,
2013-03-06 17:09:00,40.3,29.5,29.91,NW,324,7.0,15.0,65,0.00,,---,0.17,VWS V14.01,2013-03-06 22:09:00,
2013-03-06 17:14:00,40.0,29.6,29.91,NE,39,2.0,10.0,66,0.00,,---,0.17,VWS V14.01,2013-03-06 22:14:00,
2013-03-06 17:19:00,40.0,29.9,29.91,NW,309,2.0,10.0,67,0.00,,---,0.17,VWS V14.01,2013-03-06 22:19:00,
2013-03-06 17:24:00,39.8,29.4,29.91,ESE,123,2.0,16.0,66,0.00,,---,0.17,VWS V14.01,2013-03-06 22:24:00,
2013-03-06 17:29:00,39.7,29.3,29.91,NNW,329,7.0,12.0,66,0.00,,---,0.17,VWS V14.01,2013-03-06 22:29:00,
2013-03-06 17:34:00,39.4,29.0,29.91,NNW,334,11.0,20.0,66,0.00,,---,0.17,VWS V14.01,2013-03-06 22:34:00,
2013-03-06 17:39:00,39.1,29.1,29.92,North,360,21.0,23.0,67,0.00,,---,0.17,VWS V14.01,2013-03-06 22:39:00,
2013-03-06 17:44:00,38.9,29.2,29.92,NW,325,10.0,21.0,68,0.00,,---,0.17,VWS V14.01,2013-03-06 22:44:00,
2013-03-06 17:49:00,38.7,29.1,29.92,NNW,346,5.0,17.0,68,0.00,,---,0.17,VWS V14.01,2013-03-06 22:49:00,
2013-03-06 17:54:00,38.6,29.0,29.93,NE,36,2.0,15.0,68,0.00,,---,0.17,VWS V14.01,2013-03-06 22:54:00,
2013-03-06 17:59:00,38.5,28.9,29.94,North,5,2.0,19.0,68,0.00,,---,0.17,VWS V14.01,2013-03-06 22:59:00,
2013-03-06 18:04:00,38.4,28.8,29.94,North,355,4.0,13.0,68,0.00,,---,0.17,VWS V14.01,2013-03-06 23:04:00,
2013-03-06 18:09:00,38.3,29.0,29.95,NNW,329,13.0,15.0,69,0.00,,---,0.17,VWS V14.01,2013-03-06 23:09:00,
2013-03-06 18:14:00,38.3,29.0,29.95,NNW,344,3.0,11.0,69,0.00,,---,0.17,VWS V14.01,2013-03-06 23:14:00,
2013-03-06 18:19:00,38.2,28.9,29.95,North,350,7.0,11.0,69,0.00,,---,0.17,VWS V14.01,2013-03-06 23:19:00,
2013-03-06 18:24:00,38.1,28.8,29.96,NNW,327,10.0,15.0,69,0.00,,---,0.17,VWS V14.01,2013-03-06 23:24:00,
2013-03-06 18:28:00,38.1,28.8,29.96,NNE,15,5.0,12.0,69,0.00,,---,0.17,VWS V14.01,2013-03-06 23:28:00,
2013-03-06 18:33:00,38.0,29.1,29.96,NNW,339,9.0,14.0,70,0.00,,---,0.17,VWS V14.01,2013-03-06 23:33:00,
2013-03-06 18:38:00,37.9,29.0,29.96,NNW,339,13.0,14.0,70,0.00,,---,0.17,VWS V14.01,2013-03-06 23:38:00,
2013-03-06 18:43:00,37.9,29.0,29.96,NNW,331,3.0,13.0,70,0.00,,---,0.17,VWS V14.01,2013-03-06 23:43:00,
2013-03-06 18:48:00,37.9,29.0,29.97,NNE,19,7.0,18.0,70,0.00,,---,0.17,VWS V14.01,2013-03-06 23:48:00,
2013-03-06 18:53:00,38.0,29.1,29.97,North,351,2.0,19.0,70,0.00,,---,0.17,VWS V14.01,2013-03-06 23:53:00,
2013-03-06 18:58:00,37.9,29.0,29.98,NNW,338,9.0,12.0,70,0.00,,---,0.17,VWS V14.01,2013-03-06 23:58:00,
2013-03-06 19:03:00,38.0,29.1,29.98,NNW,330,6.0,17.0,70,0.00,,---,0.17,VWS V14.01,2013-03-07 00:03:00,
2013-03-06 19:08:00,38.0,29.1,29.97,NNW,334,13.0,13.0,70,0.00,,---,0.17,VWS V14.01,2013-03-07 00:08:00,
2013-03-06 19:13:00,38.1,29.2,29.97,NW,323,13.0,18.0,70,0.00,,---,0.17,VWS V14.01,2013-03-07 00:13:00,
2013-03-06 19:18:00,38.1,29.2,29.97,NNE,28,9.0,15.0,70,0.00,,---,0.17,VWS V14.01,2013-03-07 00:18:00,
2013-03-06 19:23:00,38.2,29.3,29.98,North,355,1.0,26.0,70,0.00,,---,0.17,VWS V14.01,2013-03-07 00:23:00,
2013-03-06 19:28:00,38.0,29.5,29.98,ESE,109,3.0,8.0,71,0.00,,---,0.17,VWS V14.01,2013-03-07 00:28:00,
2013-03-06 19:33:00,37.9,29.4,29.99,West,280,2.0,9.0,71,0.00,,---,0.17,VWS V14.01,2013-03-07 00:33:00,
2013-03-06 19:38:00,37.9,29.4,30.00,ENE,67,2.0,7.0,71,0.00,,---,0.17,VWS V14.01,2013-03-07 00:38:00,
2013-03-06 19:43:00,37.9,29.4,30.01,NNW,329,3.0,9.0,71,0.00,,---,0.17,VWS V14.01,2013-03-07 00:43:00,
2013-03-06 19:48:00,38.0,29.5,30.01,NNW,339,1.0,7.0,71,0.00,,---,0.17,VWS V14.01,2013-03-07 00:48:00,
2013-03-06 19:53:00,38.0,29.5,30.01,NW,323,2.0,4.0,71,0.00,,---,0.17,VWS V14.01,2013-03-07 00:53:00,
2013-03-06 19:58:00,37.9,30.0,30.01,NNW,329,4.0,5.0,73,0.00,,---,0.17,VWS V14.01,2013-03-07 00:58:00,